Погода в Сквире

Украина / Киевская область     49°43′54″N   29°39′58″E
темп.,
°C
ветер,
м/с
пор.,
м/с
влажн.,
%
обл.,
%
осадки,
мм/ч
давл.,
гПа
погр.,
м
15 мая, сб
сб1500:00+10юз35935 0.0 100870
03:00+9юз349561 0.0 100861
06:00+10юз369452 0.0 1008128
09:00+15юз46755 0.0 1009586
12:00+16юз676497 0.1 10101003
15:00+18юз565846 0.2 10101669
18:00+17юз56655 0.2 10111325
21:00+12юз35905 0.2 101263
16 мая, вс
вс1600:00+10зюз22923 0.0 101224
03:00+9ю22910 0.0 101315
06:00+10юв11915 0.0 101310
09:00+16юв347229 0.0 1013367
12:00+20юв456199 0.0 10121025
15:00+21ююв556099 0.8 10111416
18:00+21юв3565100 0.4 1010825
21:00+15вюв3984100 0.6 1010163
17 мая, пн
пн1700:00+14вюв2275100 0.0 100830
03:00+13вюв3376100 0.1 100828
06:00+13в2286100 0.0 100731
09:00+16ссз2284100 0.0 1007273
12:00+16сз3483100 1.9 1006410
15:00+14сз3690100 2.5 1006230
18:00+15ссв368689 1.0 1005400
21:00+12ссз349671 1.1 100488
18 мая, вт
вт1800:00+12ссз3595100 0.0 1003139
03:00+11зсз2296100 0.0 100336
06:00+11зюз229673 0.0 100336
09:00+16зюз348496 0.1 1002566
12:00+13з4794100 7.9 1003319
15:00+12з599299 9.1 1004604
18:00+12зсз6119089 0.3 1005668
21:00+10з1194100 0.4 100613
19 мая, ср
ср1900:00+11з41094100 0.6 1007333
03:00+10з51193100 0.6 1008339
06:00+9з51194100 0.0 1009379
09:00+12зсз7108298 0.0 1010752
12:00+16зсз786274 0.1 10101691
15:00+15зсз68667 0.2 10111357
18:00+16зсз56644 0.1 10111452
21:00+11зсз348217 0.1 101343